Location: Bergfeld
(52.0500°N, 11.7833°E)
Time: 20:06:52
(UTC+00:00)

COSMO-SKYMED 1 - Pass Details

Date: 17 February 2020
Orbit: 621 x 623 km, 97.9° (Epoch: 07 April)

Event Time Altitude Azimuth Distance (km) Brightness Sun altitude
Rises 04:00:45 0° 158° (SSE) 2,894 6.2 -22.8°
Reaches altitude 10° 04:02:55 10° 156° (SSE) 1,993 5.3 -22.4°
Maximum altitude 04:07:14 73° 73° (ENE) 659 2.7 -21.8°
Drops below altitude 10° 04:11:36 10° 349° (N) 2,009 5.1 -21.1°
Sets 04:13:49 0° 348° (NNW) 2,920 6.0 -20.8°
